• Join FlightAware (Why Join?)
  • Login
  • US Flag 
03:26AM EST


 

Airport Tracker/Info


-or-


 

Live Flight TrackerFlight Track Log ✈ SWA534 ✈ 26-Aug-2013 ✈ KLAX - KOAK

Flight Track Log - Related Links

Times and Time Zones

All times are in EDT time to prevent confusion due to time zone crossing. See the SWA534 flight status page for this flight to view local times or setup timezone preferences in your user account.

Time Position Orientation Groundspeed Altitude Reporting Facility
EDT Latitude Longitude Course Direction KTS MPH feet Rate Location/Type
05:18PM 33.9333 -118.5667 259° West 266 306 4,000  Level Southern California TRACON
05:19PM 33.9347 -118.6103 272° West 270 311 5,600 2,907 Climbing Los Angeles Center
05:20PM 33.9844 -118.6847 309° West 281 323 8,700 1,694 Climbing Los Angeles Center
05:21PM 34.0564 -118.6894 357° North 283 326 9,100 194 Climbing Los Angeles Center
05:22PM 34.1192 -118.6503 27° Northeast 285 328 9,100 1,694 Level Los Angeles Center
05:23PM 34.2122 -118.6361 North 296 341 12,600 2,371 Climbing Los Angeles Center
05:24PM 34.3050 -118.6631 347° North 337 388 14,000 1,600 Climbing Los Angeles Center
05:25PM 34.4078 -118.7042 342° North 386 444 16,200 2,029 Climbing Los Angeles Center
05:26PM 34.5325 -118.7525 342° North 393 452 18,600 2,112 Climbing Los Angeles Center
05:27PM 34.6428 -118.7964 342° North 414 476 20,600 1,707 Climbing Los Angeles Center
05:28PM 34.7297 -118.8331 341° North 416 479 22,100 1,694 Climbing Los Angeles Center
05:29PM 34.8692 -118.9458 326° Northwest 440 506 24,100 1,728 Climbing Los Angeles Center
05:30PM 34.9683 -119.0419 322° Northwest 443 510 25,700 1,258 Climbing Los Angeles Center
05:31PM 35.0683 -119.1386 322° Northwest 462 532 26,700 1,015 Climbing Los Angeles Center
05:32PM 35.1728 -119.2372 322° Northwest 479 551 28,000 1,324 Climbing Los Angeles Center
05:33PM 35.2958 -119.3575 321° Northwest 474 545 29,700 1,548 Climbing Los Angeles Center
05:35PM 35.4000 -119.4575 322° Northwest 478 550 31,200 1,452 Climbing Los Angeles Center
05:36PM 35.5200 -119.5764 321° Northwest 468 539 32,700 1,200 Climbing Los Angeles Center
05:37PM 35.6189 -119.6753 321° Northwest 462 532 33,700 629 Climbing Los Angeles Center
05:38PM 35.7186 -119.7731 321° Northwest 464 534 34,000 146 Climbing Los Angeles Center
05:39PM 35.8183 -119.8739 321° Northwest 466 536 34,000  Level Los Angeles Center
05:40PM 35.9172 -119.9739 321° Northwest 465 535 34,000 -48 Level Los Angeles Center
05:41PM 36.0167 -120.0733 321° Northwest 463 533 33,900  Descending Los Angeles Center
05:42PM 36.1350 -120.1914 321° Northwest 460 529 34,000 48 Climbing Los Angeles Center
05:43PM 36.2342 -120.2917 321° Northwest 462 532 34,000  Level Los Angeles Center
05:44PM 36.3331 -120.3900 321° Northwest 461 531 34,000 -810 Level Oakland Center
05:45PM 36.4308 -120.4886 321° Northwest 457 526 32,300 -2,468 Descending Oakland Center
05:46PM 36.5483 -120.6128 320° Northwest 462 532 28,900 -2,732 Descending Oakland Center
05:47PM 36.6442 -120.7053 322° Northwest 440 506 26,700 -2,195 Descending Oakland Center
05:48PM 36.7342 -120.7986 320° Northwest 426 490 24,400 -2,146 Descending Oakland Center
05:49PM 36.8169 -120.8958 317° Northwest 411 473 22,300 -2,146 Descending Oakland Center
05:50PM 36.9036 -120.9956 317° Northwest 390 449 20,000 -2,081 Descending Oakland Center
05:51PM 36.9808 -121.0839 318° Northwest 376 433 18,000 -1,887 Descending Oakland Center
05:52PM 37.0481 -121.1636 317° Northwest 366 421 16,100 -1,951 Descending Oakland Center
05:53PM 37.1261 -121.2531 318° Northwest 352 405 14,000 -1,967 Descending Oakland Center
05:54PM 37.1956 -121.3331 317° Northwest 341 392 12,100 -1,805 Descending Oakland Center
05:55PM 37.2636 -121.4106 318° Northwest 331 381 10,300 -1,065 Descending Oakland Center
05:56PM 37.3269 -121.4850 317° Northwest 314 361 9,900 -840 Descending Oakland Center
05:57PM 37.3833 -121.5333 326° Northwest 301 346 8,900 -1,592 Descending Northern Cal TRACON
05:58PM 37.4333 -121.6167 307° West 302 348 7,300 -1,000 Descending Northern Cal TRACON
05:59PM 37.5000 -121.7000 315° West 290 334 6,800 -650 Descending Northern Cal TRACON
06:00PM 37.5333 -121.7667 302° West 283 326 6,000 -850 Descending Northern Cal TRACON
06:01PM 37.5500 -121.8833 280° West 277 319 5,100 -857 Descending Northern Cal TRACON
06:02PM 37.5833 -121.9667 297° West 256 295 4,200 -750 Descending Northern Cal TRACON
06:03PM 37.6000 -122.0500 284° West 223 257 3,600 -750 Descending Northern Cal TRACON
06:04PM 37.6167 -122.1000 293° West 196 226 2,700 -900 Descending Northern Cal TRACON
06:05PM 37.6500 -122.1500 310° West 157 181 1,800 -992 Descending Northern Cal TRACON
06:06PM 37.6833 -122.1833 322° Northwest 130 150 700 7,137 Descending Northern Cal TRACON
06:07PM 37.7100 -122.2283 307° West 132 152 20,000 12,587 Climbing Oakland Center
06:09PM 37.7167 -122.2167 270° West  Level FlightAware Approximate
06:16PM 37.7213 -122.2207 270° West  Level Estimated